Wind_Speed
14 16 15 7 2 1 3 4 3 5 2 1 2 5 6 2 4 7 3 11 12 14 17 19 15 14 12 12 11 11 10 9 9 10 11 11 11 12 11 10 10 9 10 11 10 10 11 11 11
16 17 8 3 3 3 3 4 7 3 10 17 10 10 7 8 12 8 8 13 13 14 15 16 16 15 15 13 10 10 10 10 10 12 12 13 12 12 13 11 11 11 11 11 10 10 10 11 10
16 12 3 2 3 6 3 7 3 6 14 5 3 5 3 4 7 6 10 12 15 17 14 16 18 15 17 14 12 10 8 9 10 12 14 14 14 12 12 13 13 13 15 13 10 11 12 12 12
9 4 3 4 11 8 6 4 6 14 4 2 3 7 6 11 7 9 11 12 16 16 14 15 18 16 17 16 14 10 8 7 8 11 14 14 14 13 13 15 16 17 16 15 15 16 14 14 13
10 3 3 4 9 7 10 18 10 11 8 6 3 3 6 12 13 14 11 15 17 16 16 15 17 18 19 17 15 12 7 5 7 10 12 12 11 14 17 18 19 18 19 18 18 18 16 18 17
4 3 3 9 11 9 10 15 10 10 9 6 2 4 8 12 15 14 14 15 18 16 16 17 18 20 20 17 16 14 11 10 8 11 12 12 12 17 18 19 21 22 21 21 20 21 20 18 20
5 4 5 8 12 11 7 8 8 7 5 1 5 4 4 12 17 16 16 17 20 19 18 16 20 21 21 20 18 16 12 11 10 12 12 11 14 16 18 20 23 25 26 25 24 26 25 24 22
3 4 4 7 9 10 2 3 4 3 4 8 3 2 10 22 22 23 20 21 25 23 21 19 20 22 24 24 22 18 14 12 12 13 14 14 15 17 20 20 21 21 21 22 26 28 26 24 24
6 6 13 15 12 9 4 6 2 3 10 9 6 19 20 22 26 26 24 26 29 29 27 23 22 24 25 25 23 20 15 14 13 15 16 16 17 18 18 19 18 16 17 17 17 16 17 20 22
11 12 18 16 15 13 8 9 10 10 19 27 24 22 20 23 25 28 27 27 34 35 32 28 26 26 27 27 25 21 17 16 14 16 17 18 18 18 17 17 14 15 15 15 14 15 16 17 15
12 20 26 25 25 12 23 23 17 19 23 32 24 29 33 27 31 29 25 28 34 39 35 33 29 28 28 29 26 22 18 16 16 17 18 17 18 18 17 14 13 14 13 14 15 17 17 15 14
16 28 31 35 24 17 24 27 24 26 42 35 34 31 30 35 32 34 31 30 36 39 40 35 30 29 30 29 26 22 18 16 17 17 16 16 16 17 16 15 13 12 12 12 12 13 14 16 16
22 23 27 28 28 28 27 27 21 34 53 35 32 29 30 33 35 35 32 29 33 41 43 38 32 30 32 30 27 22 19 18 16 16 14 15 15 15 15 15 14 14 13 14 14 13 12 14 15
15 28 30 25 22 32 24 30 22 37 44 31 29 32 33 31 35 34 31 29 31 36 42 41 34 32 32 29 26 21 18 16 14 13 13 14 15 15 15 16 17 16 15 14 14 14 13 13 14
20 17 14 16 19 15 14 24 19 45 31 27 33 30 31 35 29 31 31 29 30 36 40 42 35 32 31 28 24 20 17 15 12 11 13 15 17 17 16 17 17 17 18 14 14 14 13 14 15
10 10 17 13 20 13 16 28 19 26 18 22 24 24 28 35 34 28 30 30 32 36 42 39 37 31 29 27 23 19 17 13 10 11 14 16 18 17 17 16 16 15 16 15 14 14 13 13 13
10 14 15 10 10 4 15 21 16 15 10 22 27 28 29 30 34 34 33 28 28 30 38 35 35 29 27 25 21 18 15 12 11 12 14 15 16 16 16 16 15 14 15 15 14 14 14 14 14
19 15 16 17 9 15 22 25 17 25 17 25 25 27 28 32 36 32 32 21 19 23 27 30 33 29 27 25 20 17 13 11 12 13 14 14 14 13 14 14 13 14 14 13 13 13 13 14 13
20 22 28 21 13 15 18 18 13 21 23 27 27 29 33 36 31 28 20 13 13 19 23 30 32 29 29 24 20 16 12 10 11 12 14 12 11 11 12 12 13 13 13 13 12 13 14 14 13
23 24 21 14 10 12 16 20 15 18 26 29 26 28 28 25 26 18 15 12 13 15 24 31 31 31 25 19 15 12 10 10 10 11 11 9 9 11 12 11 10 11 12 12 12 13 13 14 13
26 26 24 20 15 15 16 23 20 20 13 21 24 28 31 27 20 12 13 11 14 18 25 32 31 25 20 17 14 10 9 8 8 8 8 7 8 8 8 8 8 9 9 9 10 11 13 15 15
26 24 20 19 11 15 3 16 18 20 22 21 28 23 23 17 18 12 11 10 14 21 27 30 27 22 18 15 12 9 6 4 5 6 6 7 5 4 2 5 7 7 6 6 5 8 13 13 15
17 13 16 17 17 17 17 11 10 13 21 24 20 24 15 10 9 10 9 10 14 21 31 27 23 19 16 13 11 6 3 3 4 5 5 6 4 2 2 3 4 3 3 5 8 10 12 11 12
13 8 10 6 7 12 15 11 13 15 19 16 13 12 4 8 5 8 10 13 19 28 30 26 21 18 15 13 10 5 1 2 4 5 7 6 5 4 4 4 4 3 2 5 7 9 11 11 8
20 14 6 7 7 9 14 12 18 15 19 18 18 8 5 6 6 14 19 23 31 34 29 24 20 18 14 12 10 4 0 2 4 6 7 4 4 7 7 6 5 4 3 4 6 9 10 10 8
25 20 8 7 6 9 5 9 7 17 19 29 22 13 6 8 12 15 20 28 34 32 27 23 20 16 13 12 9 5 2 3 4 6 3 2 7 9 9 7 6 6 5 5 5 7 9 9 6
19 19 15 5 1 5 4 6 10 17 14 11 11 7 9 12 15 19 23 31 32 29 25 22 20 14 13 13 9 6 3 4 5 5 3 6 10 12 10 8 6 4 4 4 4 6 8 7 5
18 19 10 9 9 9 6 5 8 6 9 8 8 9 11 15 18 21 28 31 29 25 23 21 16 13 14 12 9 6 2 3 4 4 4 7 10 12 10 8 5 3 3 3 5 4 5 7 6
11 18 7 10 6 5 3 5 9 14 8 7 2 10 14 16 19 22 27 29 27 24 23 21 16 14 15 12 10 6 2 2 2 2 3 7 10 11 10 8 5 3 3 4 3 3 5 7 9
20 21 19 9 10 10 2 5 1 8 7 7 2 10 16 17 20 23 25 29 27 25 24 19 17 15 14 12 9 7 3 1 1 1 4 7 10 11 8 6 4 4 5 6 6 6 7 9 9
Wind_Direction
154 147 150 146 205 263 234 234 253 261 264 219 175 195 246 258 199 288 250 179 179 189 187 194 199 205 216 220 231 238 251 268 285 285 284 282 282 276 268 263 253 250 259 263 269 269 270 273 259
151 145 153 131 218 217 205 225 220 240 315 312 239 225 228 268 240 261 250 190 185 184 184 188 194 200 214 219 226 237 251 273 288 287 286 282 284 282 281 275 281 279 270 258 259 267 270 268 266
152 155 185 219 197 224 227 204 218 303 313 270 277 232 219 225 247 239 210 207 193 184 184 189 192 191 208 214 220 231 252 280 294 295 287 282 281 273 264 262 273 286 288 279 262 273 278 278 273
158 149 84 242 233 239 234 205 270 314 334 61 258 273 261 261 273 254 232 219 196 190 189 191 196 196 205 213 219 226 245 275 299 301 296 287 282 268 262 264 265 278 276 269 262 256 253 265 267
157 138 229 249 253 257 248 264 276 286 299 298 244 265 262 283 282 262 252 225 206 198 193 197 200 203 208 215 219 222 239 271 307 308 298 289 275 264 269 268 267 273 266 263 266 264 259 252 258
147 148 227 251 255 261 265 262 257 247 268 287 216 261 267 287 328 291 261 234 211 208 201 205 207 210 214 219 221 224 237 249 287 311 303 287 271 270 267 266 264 264 265 265 261 262 259 254 252
207 182 239 267 278 285 254 251 225 224 223 247 283 242 271 323 340 315 278 238 217 209 208 212 214 214 217 223 223 224 236 249 275 304 299 276 269 266 268 271 271 269 266 261 256 256 256 248 249
197 220 223 237 266 272 311 226 145 208 281 316 245 244 307 314 321 320 287 241 219 214 211 218 218 219 219 222 224 225 237 254 275 294 293 281 274 271 276 277 276 272 268 262 256 256 254 251 248
183 228 238 237 226 251 261 256 38 288 288 274 272 288 296 303 313 309 291 248 224 219 217 218 222 222 222 225 226 226 239 255 273 288 287 282 277 276 272 277 274 272 266 264 262 262 262 255 246
198 227 233 235 239 251 274 289 300 292 293 280 286 288 295 304 303 301 294 264 231 223 223 222 224 224 225 224 225 226 240 255 275 285 284 279 277 274 270 275 265 267 261 257 257 250 259 258 248
210 231 234 257 249 263 280 278 287 289 288 282 291 296 303 301 298 299 288 272 255 235 228 226 227 226 225 225 226 229 241 256 277 280 277 274 274 270 267 266 264 265 259 255 251 255 257 258 241
237 230 238 250 260 262 264 285 281 284 269 282 290 290 290 293 293 296 285 276 253 244 234 230 228 228 227 226 229 233 246 261 274 276 270 268 270 266 265 264 264 268 257 257 258 264 265 254 249
229 242 238 248 264 263 271 267 271 284 283 287 280 282 283 288 290 293 297 290 261 251 240 232 230 228 227 224 227 231 249 267 269 271 267 268 270 271 266 263 261 260 259 258 260 259 262 251 246
235 240 245 247 255 264 269 272 269 267 273 285 283 280 282 282 290 294 294 291 272 259 247 235 230 227 225 225 228 235 252 259 265 265 272 273 269 269 267 263 260 259 256 256 256 256 260 255 244
242 256 243 242 242 253 286 271 246 262 280 273 279 283 284 288 290 293 296 293 287 264 249 236 226 224 224 225 224 232 251 253 261 274 276 277 272 268 266 261 258 258 247 254 252 250 257 252 247
223 230 244 235 236 250 220 266 264 271 272 278 280 284 286 286 287 288 293 290 287 267 254 234 225 221 223 219 219 235 245 249 261 278 280 278 273 267 261 262 262 255 246 252 250 245 254 250 245
213 241 226 247 208 218 200 268 262 274 291 284 283 286 284 286 292 290 292 287 278 266 256 230 221 218 216 209 217 233 238 245 262 282 287 281 276 266 260 260 256 253 247 244 243 244 249 246 237
227 236 239 243 229 227 249 256 276 288 298 280 284 287 282 283 292 300 297 281 261 255 246 224 217 212 202 203 217 229 234 246 266 281 289 287 274 262 261 259 255 248 240 241 247 250 250 240 228
248 251 249 252 232 243 256 275 283 295 292 285 287 287 282 285 296 298 295 286 259 242 225 211 205 198 195 203 216 221 229 250 269 280 291 287 272 266 265 258 255 242 235 241 247 250 242 230 211
231 245 246 251 252 262 279 278 287 285 279 281 281 287 281 288 294 295 289 274 247 231 211 201 195 192 194 207 211 213 227 256 272 285 292 286 274 274 273 256 245 230 231 241 250 248 237 214 200
225 233 238 246 267 271 283 281 278 277 274 280 283 279 283 278 289 295 282 254 227 211 202 188 183 184 194 199 201 208 233 264 291 289 300 292 286 286 272 245 222 219 234 246 249 236 214 202 194
232 225 247 250 254 262 318 288 279 283 284 281 283 278 273 274 282 273 272 240 213 200 184 176 175 184 188 191 192 203 234 269 294 299 302 299 300 303 272 209 205 225 236 234 228 205 191 198 199
239 226 225 236 245 272 258 266 280 286 281 275 274 270 281 307 278 253 234 209 195 183 174 171 177 181 180 184 183 196 257 277 307 314 313 296 286 260 216 197 196 200 211 214 206 194 188 192 195
194 201 206 223 247 252 258 248 278 268 257 274 265 256 310 325 268 203 181 168 165 167 168 173 177 174 178 180 183 182 307 292 326 319 311 293 259 226 177 151 145 147 177 195 188 189 192 193 205
196 185 207 224 217 249 243 234 246 261 250 259 262 280 311 293 192 163 159 158 159 165 170 174 173 173 176 180 176 167 351 5 340 321 318 282 242 182 156 137 115 117 130 162 187 193 193 200 202
190 187 177 205 217 250 148 217 253 245 260 244 251 273 245 192 167 156 160 158 161 167 173 172 171 171 174 173 167 162 84 18 352 337 319 188 161 157 150 133 119 111 119 124 146 173 195 207 216
183 202 203 254 283 277 171 261 278 247 246 235 239 225 186 171 162 160 162 162 166 172 173 172 169 170 171 167 163 156 99 38 17 22 62 135 151 152 152 149 130 140 119 114 152 165 190 201 232
201 187 185 206 221 236 238 280 257 313 243 205 193 194 175 163 158 163 165 168 171 171 171 169 168 169 166 163 162 161 140 32 21 32 78 133 152 156 158 165 141 125 135 125 144 165 201 211 200
178 187 187 190 215 207 279 246 213 252 263 270 346 156 162 160 160 166 169 170 170 171 170 166 166 166 164 162 161 152 191 12 16 25 106 133 153 161 168 167 165 130 123 122 140 169 195 176 167
199 187 183 185 193 220 271 256 240 246 294 309 249 144 148 163 162 167 170 169 172 171 171 168 166 164 166 164 170 173 215 288 359 5 160 150 157 164 166 165 178 152 122 123 118 118 124 140 150
Height
1535 1537 1538 1539 1546 1541 1539 1531 1527 1524 1523 1523 1522 1520 1519 1516 1515 1517 1508 1508 1510 1511 1513 1516 1519 1521 1523 1524 1526 1527 1528 1528 1528 1528 1529 1529 1528 1528 1529 1529 1529 1529 1529 1528 1528 1529 1529 1529 1531
1535 1537 1540 1538 1542 1547 1528 1524 1521 1518 1519 1518 1518 1516 1517 1513 1511 1509 1507 1507 1509 1510 1512 1514 1516 1518 1520 1522 1523 1524 1525 1525 1525 1525 1525 1526 1526 1526 1526 1526 1525 1526 1527 1527 1528 1528 1528 1528 1528
1536 1537 1538 1535 1537 1533 1524 1519 1515 1517 1517 1515 1514 1513 1512 1510 1508 1507 1505 1506 1506 1509 1510 1512 1514 1515 1518 1519 1521 1521 1522 1522 1522 1522 1523 1523 1523 1523 1523 1523 1523 1524 1524 1524 1525 1525 1526 1527 1526
1535 1537 1538 1536 1531 1527 1520 1515 1516 1514 1514 1513 1513 1511 1510 1507 1507 1505 1504 1504 1505 1507 1510 1512 1513 1515 1516 1517 1517 1519 1520 1520 1520 1520 1520 1519 1519 1520 1520 1520 1520 1520 1520 1521 1522 1522 1523 1524 1525
1532 1533 1533 1534 1529 1522 1517 1513 1516 1513 1515 1513 1512 1509 1508 1505 1504 1504 1504 1504 1504 1505 1506 1509 1511 1511 1513 1514 1516 1516 1518 1518 1518 1517 1516 1516 1517 1517 1517 1517 1517 1517 1517 1518 1518 1518 1520 1521 1522
1531 1532 1533 1529 1521 1518 1513 1512 1513 1511 1512 1512 1511 1510 1506 1504 1504 1503 1502 1502 1503 1503 1504 1506 1507 1510 1512 1513 1514 1515 1516 1517 1516 1516 1515 1514 1515 1515 1515 1514 1513 1513 1513 1514 1514 1515 1517 1518 1519
1528 1526 1525 1527 1520 1516 1508 1507 1509 1508 1509 1508 1508 1506 1504 1503 1503 1502 1502 1501 1500 1499 1501 1503 1505 1507 1510 1511 1511 1513 1514 1515 1515 1514 1513 1513 1512 1512 1511 1510 1509 1508 1508 1508 1510 1511 1513 1514 1515
1527 1526 1526 1523 1518 1512 1505 1508 1506 1507 1507 1507 1507 1504 1503 1503 1501 1501 1499 1499 1498 1497 1498 1500 1501 1504 1506 1508 1509 1510 1511 1512 1512 1512 1511 1511 1509 1509 1508 1506 1505 1504 1503 1504 1505 1507 1508 1509 1511
1525 1526 1518 1514 1515 1500 1504 1506 1508 1508 1507 1505 1505 1503 1502 1500 1498 1497 1495 1494 1493 1494 1495 1496 1497 1499 1503 1505 1506 1508 1508 1509 1509 1508 1508 1507 1506 1505 1504 1503 1502 1500 1499 1500 1500 1501 1502 1504 1505
1520 1518 1510 1500 1499 1499 1504 1506 1508 1507 1503 1496 1499 1498 1497 1495 1494 1492 1490 1487 1488 1487 1489 1491 1493 1495 1499 1501 1502 1504 1505 1505 1505 1505 1505 1504 1503 1502 1501 1500 1499 1497 1497 1497 1497 1498 1499 1500 1502
1509 1505 1500 1497 1496 1504 1504 1502 1504 1503 1494 1487 1492 1489 1488 1489 1487 1486 1485 1483 1480 1484 1484 1486 1488 1492 1496 1498 1500 1501 1502 1502 1502 1502 1501 1500 1499 1498 1498 1497 1496 1495 1495 1495 1495 1496 1496 1496 1498
1503 1498 1500 1492 1498 1502 1500 1501 1496 1501 1484 1487 1485 1485 1484 1480 1480 1479 1478 1477 1477 1476 1479 1480 1484 1488 1492 1494 1495 1498 1499 1499 1499 1498 1498 1496 1496 1495 1494 1494 1493 1493 1492 1492 1492 1493 1493 1493 1494
1495 1494 1493 1494 1496 1499 1498 1496 1496 1490 1474 1483 1481 1478 1475 1474 1473 1472 1471 1470 1471 1471 1473 1477 1479 1482 1485 1488 1491 1494 1495 1496 1496 1495 1494 1493 1492 1491 1491 1491 1490 1490 1490 1490 1490 1490 1490 1490 1491
1486 1491 1488 1491 1493 1491 1493 1489 1494 1479 1469 1477 1474 1471 1468 1467 1465 1465 1463 1462 1462 1463 1466 1471 1473 1477 1481 1484 1488 1491 1492 1493 1492 1491 1490 1489 1489 1488 1488 1487 1487 1487 1487 1487 1487 1488 1488 1488 1488
1487 1488 1485 1487 1487 1488 1490 1476 1480 1466 1472 1472 1467 1463 1461 1459 1459 1458 1457 1456 1455 1456 1459 1466 1468 1471 1475 1480 1484 1487 1489 1489 1489 1488 1487 1485 1485 1485 1485 1484 1483 1484 1484 1484 1485 1485 1485 1485 1485
1485 1482 1481 1475 1480 1482 1490 1461 1463 1464 1467 1463 1460 1457 1456 1453 1452 1451 1449 1449 1449 1449 1451 1459 1464 1467 1472 1476 1481 1484 1485 1485 1485 1484 1483 1482 1481 1480 1480 1479 1479 1479 1480 1481 1482 1482 1482 1482 1482
1477 1469 1476 1475 1474 1475 1477 1459 1457 1461 1461 1460 1455 1452 1450 1447 1444 1441 1442 1441 1439 1441 1445 1453 1459 1463 1467 1472 1477 1480 1481 1482 1482 1481 1480 1478 1476 1476 1476 1476 1476 1475 1476 1478 1478 1478 1479 1479 1479
1463 1473 1470 1471 1467 1469 1462 1455 1457 1459 1455 1454 1449 1445 1444 1440 1434 1433 1432 1431 1431 1433 1439 1446 1453 1457 1462 1468 1473 1476 1478 1479 1479 1478 1476 1474 1473 1472 1472 1472 1473 1473 1473 1474 1475 1475 1475 1475 1477
1460 1461 1457 1455 1459 1465 1455 1456 1456 1451 1450 1448 1442 1439 1435 1430 1427 1425 1423 1424 1425 1429 1434 1440 1447 1455 1459 1464 1469 1472 1475 1476 1476 1474 1473 1470 1470 1469 1469 1469 1469 1469 1471 1472 1471 1471 1471 1472 1474
1461 1461 1458 1459 1459 1462 1456 1452 1449 1448 1443 1440 1436 1431 1427 1423 1422 1419 1420 1421 1422 1426 1431 1436 1444 1450 1457 1463 1466 1469 1472 1474 1473 1471 1469 1467 1467 1466 1465 1465 1465 1466 1468 1469 1469 1468 1468 1469 1471
1453 1454 1456 1459 1455 1456 1456 1449 1442 1437 1436 1433 1428 1427 1420 1418 1416 1415 1416 1417 1422 1424 1429 1435 1442 1451 1456 1461 1464 1467 1470 1471 1470 1468 1466 1465 1464 1463 1462 1462 1463 1465 1466 1465 1465 1465 1465 1468 1470
1446 1446 1454 1457 1464 1460 1451 1452 1439 1434 1428 1421 1418 1419 1413 1413 1411 1410 1412 1415 1420 1425 1431 1438 1444 1450 1455 1459 1462 1466 1468 1468 1466 1465 1464 1463 1462 1461 1460 1461 1462 1463 1463 1464 1464 1464 1465 1468 1470
1436 1445 1452 1455 1457 1455 1452 1457 1433 1428 1421 1410 1409 1408 1409 1406 1406 1407 1409 1413 1418 1426 1433 1440 1445 1450 1454 1458 1461 1464 1465 1465 1463 1463 1462 1461 1461 1461 1461 1461 1462 1462 1463 1463 1464 1464 1466 1468 1470
1437 1444 1449 1451 1453 1458 1446 1452 1432 1421 1408 1404 1401 1400 1401 1402 1402 1404 1408 1413 1419 1427 1434 1440 1445 1450 1453 1457 1460 1462 1463 1462 1462 1461 1460 1459 1459 1460 1461 1461 1461 1462 1462 1463 1463 1465 1466 1468 1470
1435 1444 1455 1460 1459 1448 1428 1440 1419 1402 1399 1400 1397 1396 1400 1401 1401 1403 1407 1412 1420 1428 1434 1439 1444 1449 1453 1456 1459 1461 1461 1460 1460 1459 1458 1457 1457 1459 1460 1461 1461 1462 1462 1462 1464 1465 1466 1468 1469
1423 1428 1435 1452 1444 1431 1428 1434 1410 1393 1390 1392 1393 1394 1398 1399 1402 1405 1411 1415 1422 1429 1434 1439 1444 1448 1452 1455 1458 1459 1459 1459 1459 1458 1456 1456 1456 1458 1460 1461 1462 1462 1462 1463 1464 1465 1466 1468 1469
1415 1421 1416 1428 1433 1429 1423 1414 1398 1390 1388 1387 1388 1392 1396 1398 1402 1406 1413 1418 1424 1429 1434 1439 1444 1448 1451 1454 1456 1458 1459 1459 1458 1457 1455 1455 1457 1458 1460 1462 1463 1463 1463 1464 1464 1465 1466 1467 1468
1397 1409 1430 1427 1442 1442 1418 1416 1402 1387 1385 1383 1385 1390 1394 1397 1401 1407 1414 1420 1425 1431 1436 1440 1444 1447 1450 1453 1455 1457 1458 1458 1458 1457 1456 1456 1457 1459 1461 1463 1464 1463 1464 1464 1464 1465 1466 1466 1467
1400 1403 1407 1414 1419 1425 1425 1405 1385 1379 1379 1379 1382 1385 1391 1397 1402 1409 1415 1421 1427 1432 1436 1439 1443 1446 1450 1453 1455 1457 1457 1458 1457 1457 1457 1457 1458 1460 1462 1463 1464 1465 1465 1465 1465 1465 1465 1466 1467
1381 1387 1398 1407 1425 1410 1413 1402 1381 1381 1378 1381 1381 1383 1389 1399 1404 1410 1417 1421 1426 1431 1436 1439 1443 1446 1450 1452 1455 1456 1457 1457 1457 1456 1457 1457 1459 1461 1463 1464 1465 1465 1466 1466 1466 1466 1465 1467 1468